Weather History for Petersburg, WV

Change the Weather History Date:

Saturday, January 5, 2013

  Actual Average (KEKN) Record (KEKN)
Temperature  
Mean Temperature 40 °F 29 °F  
Max Temperature 48 °F 39 °F 67 °F (2004)
Min Temperature 31 °F 19 °F -14 °F (1919)
Degree Days  
Heating Degree Days 26 36  
Month to date heating degree days 180  
Since 1 July heating degree days 2471  
Cooling Degree Days 0 0  
Month to date cooling degree days 0  
Year to date cooling degree days 0  
Moisture  
Dew Point 22 °F    
Average Humidity 55    
Maximum Humidity 82    
Minimum Humidity 27    
Precipitation  
Precipitation 0.00 in 0.11 in 0.97 in (1949)
Month to date precipitation 0.50  
Year to date precipitation 0.50  
Snow  
Snow 0.00 in - - ()
Month to date snowfall  
Since 1 September snowfall  
Snow Depth -    
Sea Level Pressure  
Sea Level Pressure 30.26 in    
Wind  
Wind Speed 6 mph (WSW)    
Max Wind Speed 16 mph    
Max Gust Speed 23 mph    
Visibility 10 miles    
Events      
T = Trace of Precipitation, MM = Missing Value Source: NWS Daily Summary

Daily Weather History Graph

Daily Weather History Graph

Search for Another Location

Airport:

Trip Planner

Search our weather history database for the weather conditions in past years. The results will help you decide how hot, cold, wet, or windy it might be!

Date:

Astronomy

Jan. 05, 2013 Rise Set
Actual Time 7:35 AM EST 5:08 PM EST
Civil Twilight 7:06 AM EST 5:38 PM EST
Nautical Twilight 6:32 AM EST 6:11 PM EST
Astronomical Twilight 6:00 AM EST 6:44 PM EST
Moon 12:42 AM EST (1/5) 11:56 AM EST (1/5)
Length of Visible Light 10h 32m
Length of Day
9h 33m
Last Quarter, 44% of the Moon is Illuminated
Jan 5
Last Quarter
Jan 11
New
Jan 18
First Quarter
Jan 26
Full
Feb 3
Last Quarter

Hourly Weather History & Observations

Time (EST) Temp. Windchill Dew Point Humidity Pressure Visibility Wind Dir Wind Speed Gust Speed Precip Events Conditions
12:15 AM 36.3 °F 31.6 °F 20.7 °F 53% 30.22 in 10.0 mi SW 5.8 mph 18.4 mph N/A   Clear
12:35 AM 36.3 °F 31.6 °F 20.7 °F 53% 30.23 in 10.0 mi West 5.8 mph - N/A   Clear
12:55 AM 36.1 °F 27.7 °F 20.7 °F 53% 30.23 in 10.0 mi WSW 12.7 mph 18.4 mph N/A   Clear
1:15 AM 36.3 °F 28.9 °F 20.1 °F 52% 30.23 in 10.0 mi WSW 10.4 mph 19.6 mph N/A   Clear
1:35 AM 36.3 °F 28.9 °F 19.4 °F 50% 30.24 in 10.0 mi SW 10.4 mph 23.0 mph N/A   Clear
1:55 AM 36.0 °F 27.5 °F 19.9 °F 52% 30.25 in 10.0 mi WSW 12.7 mph 17.3 mph N/A   Clear
2:15 AM 35.8 °F 31.9 °F 19.8 °F 52% 30.26 in 10.0 mi SW 4.6 mph - N/A   Clear
2:35 AM 35.8 °F 26.9 °F 19.8 °F 52% 30.27 in 10.0 mi SW 13.8 mph 19.6 mph N/A   Clear
2:55 AM 35.6 °F 31.7 °F 19.4 °F 52% 30.28 in 10.0 mi SW 4.6 mph - N/A   Clear
3:15 AM 35.6 °F 27.5 °F 19.0 °F 51% 30.29 in 10.0 mi WSW 11.5 mph 16.1 mph N/A   Clear
3:35 AM 35.6 °F 28.0 °F 19.2 °F 51% 30.29 in 10.0 mi WSW 10.4 mph 21.9 mph N/A   Clear
3:55 AM 34.7 °F 25.9 °F 19.4 °F 54% 30.30 in 10.0 mi WSW 12.7 mph - N/A   Clear
4:15 AM 34.9 °F 28.3 °F 19.4 °F 53% 30.30 in 10.0 mi West 8.1 mph 17.3 mph N/A   Clear
4:35 AM 33.8 °F 24.8 °F 19.6 °F 56% 30.31 in 10.0 mi West 12.7 mph 17.3 mph N/A   Clear
4:55 AM 33.8 °F 26.4 °F 19.9 °F 57% 30.32 in 10.0 mi West 9.2 mph - N/A   Clear
5:15 AM 33.1 °F 28.7 °F 20.1 °F 59% 30.33 in 10.0 mi West 4.6 mph - N/A   Clear
5:35 AM 32.7 °F 25.7 °F 19.9 °F 59% 30.34 in 10.0 mi West 8.1 mph - N/A   Clear
5:55 AM 33.3 °F 27.9 °F 19.6 °F 57% 30.35 in 10.0 mi WNW 5.8 mph - N/A   Clear
6:15 AM 33.6 °F 24.1 °F 20.3 °F 58% 30.34 in 10.0 mi WNW 13.8 mph 17.3 mph N/A   Clear
6:35 AM 33.8 °F 23.5 °F 20.3 °F 58% 30.34 in 10.0 mi West 16.1 mph - N/A   Clear
6:55 AM 33.8 °F 25.8 °F 19.8 °F 56% 30.33 in 10.0 mi West 10.4 mph 19.6 mph N/A   Clear
7:15 AM 34.2 °F 27.5 °F 19.2 °F 54% 30.32 in 10.0 mi NNW 8.1 mph - N/A   Clear
7:35 AM 32.0 °F 27.5 °F 19.2 °F 59% 30.33 in 10.0 mi SSE 4.6 mph - N/A   Clear
7:55 AM 31.5 °F - 19.8 °F 62% 30.34 in 10.0 mi Calm Calm - N/A   Clear
8:35 AM 32.0 °F 27.5 °F 21.2 °F 64% 30.34 in 10.0 mi SSE 4.6 mph - N/A   Clear
8:55 AM 33.6 °F - 21.0 °F 60% 30.32 in 10.0 mi Calm Calm - N/A   Clear
9:15 AM 33.3 °F - 20.7 °F 60% 30.32 in 10.0 mi Calm Calm - N/A   Clear
9:35 AM 34.7 °F 29.6 °F 19.6 °F 54% 30.34 in 10.0 mi SE 5.8 mph - N/A   Clear
9:55 AM 35.8 °F 33.0 °F 19.4 °F 51% 30.35 in 10.0 mi East 3.5 mph - N/A   Clear
10:15 AM 36.1 °F 31.4 °F 19.2 °F 50% 30.36 in 10.0 mi ESE 5.8 mph - N/A   Clear
10:55 AM 39.4 °F - 19.2 °F 44% 30.34 in 10.0 mi Calm Calm - N/A   Clear
11:15 AM 40.1 °F 38.0 °F 19.8 °F 44% 30.34 in 10.0 mi East 3.5 mph - N/A   Clear
11:55 AM 42.3 °F - 19.8 °F 41% 30.32 in 10.0 mi Calm Calm - N/A   Clear
12:15 PM 43.9 °F - 20.3 °F 39% 30.31 in 10.0 mi Calm Calm - N/A   Clear
12:35 PM 45.0 °F 43.5 °F 19.4 °F 36% 30.30 in 10.0 mi East 3.5 mph - N/A   Clear
12:55 PM 45.5 °F - 17.6 °F 33% 30.28 in 10.0 mi Calm Calm - N/A   Clear
1:15 PM 46.0 °F - 17.1 °F 31% 30.27 in 10.0 mi Calm Calm - N/A   Clear
1:35 PM 46.4 °F - 16.9 °F 31% 30.26 in 10.0 mi Calm Calm - N/A   Clear
1:55 PM 46.6 °F - 16.2 °F 30% 30.25 in 10.0 mi NNE 3.5 mph - N/A   Clear
2:15 PM 46.6 °F - 15.6 °F 29% 30.25 in 10.0 mi Calm Calm - N/A   Clear
2:35 PM 46.6 °F - 15.3 °F 29% 30.25 in 10.0 mi Calm Calm - N/A   Clear
2:55 PM 46.9 °F - 14.4 °F 27% 30.24 in 10.0 mi Calm Calm - N/A   Clear
3:15 PM 47.8 °F - 15.6 °F 28% 30.24 in 10.0 mi Calm Calm - N/A   Clear
3:35 PM 48.2 °F - 15.4 °F 27% 30.23 in 10.0 mi Calm Calm - N/A   Clear
3:55 PM 47.8 °F - 15.6 °F 28% 30.22 in 10.0 mi Calm Calm - N/A   Clear
4:15 PM 47.1 °F - 21.0 °F 36% 30.22 in 10.0 mi Calm Calm - N/A   Clear
4:35 PM 45.1 °F 43.7 °F 23.5 °F 43% 30.23 in 10.0 mi WSW 3.5 mph - N/A   Clear
4:55 PM 41.4 °F - 25.3 °F 53% 30.23 in 10.0 mi Calm Calm - N/A   Clear
5:15 PM 40.1 °F - 25.2 °F 55% 30.22 in 10.0 mi Calm Calm - N/A   Clear
5:55 PM 36.1 °F - 25.9 °F 66% 30.22 in 10.0 mi Calm Calm - N/A   Clear
6:15 PM 34.9 °F 30.8 °F 26.6 °F 72% 30.21 in 10.0 mi NW 4.6 mph - N/A   Clear
6:35 PM 35.2 °F 32.4 °F 27.1 °F 72% 30.21 in 10.0 mi WNW 3.5 mph - N/A   Clear
6:55 PM 34.9 °F - 27.5 °F 74% 30.22 in 10.0 mi Calm Calm - N/A   Clear
7:15 PM 34.9 °F - 28.0 °F 76% 30.21 in 10.0 mi Calm Calm - N/A   Scattered Clouds
7:35 PM 35.6 °F - 28.6 °F 76% 30.21 in 10.0 mi Calm Calm - N/A   Mostly Cloudy
7:55 PM 36.0 °F - 28.2 °F 73% 30.20 in 10.0 mi Calm Calm - N/A   Scattered Clouds
8:15 PM 34.5 °F - 27.5 °F 76% 30.19 in 10.0 mi Calm Calm - N/A   Clear
8:35 PM 33.8 °F - 27.9 °F 79% 30.19 in 10.0 mi Calm Calm - N/A   Mostly Cloudy
8:55 PM 34.3 °F - 29.3 °F 82% 30.20 in 10.0 mi Calm Calm - N/A   Overcast
9:15 PM 35.1 °F - 28.8 °F 78% 30.20 in 10.0 mi Calm Calm - N/A   Overcast
9:35 PM 35.6 °F - 29.3 °F 78% 30.19 in 10.0 mi Calm Calm - N/A   Overcast
9:55 PM 36.0 °F 33.3 °F 29.1 °F 76% 30.19 in 10.0 mi WNW 3.5 mph - N/A   Overcast
10:15 PM 36.0 °F - 29.3 °F 77% 30.19 in 10.0 mi Calm Calm - N/A   Overcast
10:35 PM 36.1 °F - 29.1 °F 76% 30.17 in 10.0 mi Calm Calm - N/A   Overcast
10:55 PM 36.1 °F - 29.3 °F 76% 30.18 in 10.0 mi Calm Calm - N/A   Overcast
11:15 PM 36.1 °F - 29.1 °F 76% 30.18 in 10.0 mi Calm Calm - N/A   Overcast
11:35 PM 36.0 °F - 28.9 °F 76% 30.17 in 10.0 mi Calm Calm - N/A   Overcast
11:55 PM 36.0 °F - 29.1 °F 76% 30.17 in 10.0 mi Calm Calm - N/A   Overcast